Flight Track Log - Related Links

Times and Time Zones

All times are in EDT time to prevent confusion due to time zone crossing. See the CFS677 flight status page for this flight to view local times or setup timezone preferences in your user account.

Time Position Orientation Groundspeed Altitude Reporting Facility
EDT Latitude Longitude Course Direction KTS MPH feet Rate Location/Type
Tue 09:13:12 PM 42.5231 -122.9203 352° North 122 140 6,800  Level Seattle Center
Tue 09:14:00 PM 42.6416 -122.9354 350° North  Level FlightAware Approximate
Tue 09:14:13 PM 42.5575 -122.9286 350° North 126 145 8,000  Level Seattle Center
Tue 09:15:00 PM 42.6875 -122.9469 350° North  Level FlightAware Approximate
Tue 09:15:14 PM 42.5936 -122.9358 352° North 129 148 8,700  Level Seattle Center
Tue 09:16:00 PM 42.7340 -122.9500 North  Level FlightAware Approximate
Tue 09:17:00 PM 42.7804 -122.9555 352° North  Level FlightAware Approximate
Tue 09:17:15 PM 42.6844 -122.9486 354° North 171 197 10,000  Level Seattle Center
Tue 09:18:00 PM 42.8267 -122.9639 352° North  Level FlightAware Approximate
Tue 09:18:16 PM 42.7344 -122.9617 349° North 180 207 10,000  Level Seattle Center
Tue 09:19:17 PM 42.7858 -122.9706 353° North 185 213 10,000  Level Seattle Center
Tue 09:20:18 PM 42.8358 -122.9803 352° North 183 211 10,000  Level Seattle Center
Tue 09:21:19 PM 42.8906 -122.9917 351° North 183 211 10,000  Level Seattle Center
Tue 09:23:21 PM 42.9914 -123.0114 352° North 183 211 10,000  Level Seattle Center
Tue 09:24:22 PM 43.0417 -123.0219 351° North 183 211 10,000  Level Seattle Center
Tue 09:25:23 PM 43.0922 -123.0311 352° North 182 209 10,000  Level Seattle Center
Tue 09:26:24 PM 43.1417 -123.0419 351° North 181 208 10,000 -50 Level Seattle Center
Tue 09:27:24 PM 43.1953 -123.0503 354° North 182 209 9,900 -50 Descending Seattle Center
Tue 09:28:25 PM 43.2433 -123.0544 356° North 182 209 9,900  Level Seattle Center
Tue 09:29:26 PM 43.2939 -123.0625 353° North 179 206 9,900  Level Seattle Center
Tue 09:30:27 PM 43.3447 -123.0725 352° North 179 206 9,900  Level Seattle Center
Tue 09:31:28 PM 43.3944 -123.0825 352° North 178 205 9,900 49 Level Seattle Center
Tue 09:32:29 PM 43.4450 -123.0922 352° North 179 206 10,000 49 Climbing Seattle Center
Tue 09:33:30 PM 43.4958 -123.1014 353° North 180 207 10,000 49 Level Seattle Center
Tue 09:34:31 PM 43.5464 -123.1111 352° North 181 208 10,100 50 Climbing Seattle Center
Tue 09:35:31 PM 43.5969 -123.1211 352° North 181 208 10,100  Level Seattle Center
Tue 09:36:32 PM 43.6486 -123.1308 352° North 183 211 10,100  Level Seattle Center
Tue 09:37:33 PM 43.7000 -123.1417 351° North 182 209 10,100  Level Seattle Center
Tue 09:38:34 PM 43.7503 -123.1508 352° North 182 209 10,100  Level Seattle Center
Tue 09:39:35 PM 43.7975 -123.1600 352° North 181 208 10,100  Level Seattle Center
Tue 09:40:36 PM 43.8492 -123.1697 352° North 182 209 10,100  Level Seattle Center
Tue 09:41:37 PM 43.9011 -123.1800 352° North 184 212 10,100  Level Seattle Center
Tue 09:42:38 PM 43.9531 -123.1906 352° North 184 212 10,100  Level Seattle Center
Tue 09:43:38 PM 44.0036 -123.2000 352° North 183 211 10,100  Level Seattle Center
Tue 09:44:39 PM 44.0550 -123.2103 352° North 183 211 10,100  Level Seattle Center
Tue 09:45:40 PM 44.1053 -123.2200 352° North 182 209 10,100  Level Seattle Center
Tue 09:46:41 PM 44.1578 -123.2286 353° North 195 224 10,100  Level Seattle Center
Tue 09:47:42 PM 44.2097 -123.2158 10° North 186 214 10,100  Level Seattle Center
Tue 09:48:43 PM 44.2628 -123.2064 North 188 216 10,100  Level Seattle Center
Tue 09:49:43 PM 44.3156 -123.1953 North 189 217 10,100  Level Seattle Center
Tue 09:50:44 PM 44.3711 -123.1825 North 192 221 10,100  Level Seattle Center
Tue 09:51:45 PM 44.4228 -123.1722 North 190 219 10,100  Level Seattle Center
Tue 09:52:46 PM 44.4750 -123.1617 North 190 219 10,100  Level Seattle Center
Tue 09:53:47 PM 44.5256 -123.1519 North 185 213 10,100  Level Seattle Center
Tue 09:54:48 PM 44.5769 -123.1422 North 185 213 10,100 -50 Level Seattle Center
Tue 09:55:48 PM 44.6231 -123.1311 10° North 185 213 10,000 -50 Descending Seattle Center
Tue 09:56:49 PM 44.6867 -123.1181 North 189 217 10,000  Level Seattle Center
Tue 09:57:50 PM 44.7392 -123.1083 North 189 217 10,000  Level Seattle Center
Tue 09:58:51 PM 44.7911 -123.0967 North 189 217 10,000 -98 Level Seattle Center
Tue 09:59:52 PM 44.8428 -123.0858 North 189 217 9,800 -393 Descending Seattle Center
Tue 10:00:53 PM 44.8964 -123.0736 North 191 220 9,200 -689 Descending Seattle Center
Tue 10:01:54 PM 44.9511 -123.0622 North 195 224 8,400 -867 Descending Seattle Center
Tue 10:02:23 PM 44.9822 -123.0558 North 202 232 7,900 -1,017 Descending Seattle Center
Tue 10:02:53 PM 45.0133 -123.0494 North 205 236 7,400 -1,043 Descending Seattle Center
Tue 10:03:55 PM 45.0606 -123.0364 11° North 201 231 6,300 -992 Descending Seattle Center
Tue 10:04:54 PM 45.1083 -122.9936 32° Northeast 192 221 5,400 -787 Descending Seattle Center
Tue 10:05:57 PM 45.1569 -122.9544 30° Northeast 185 213 4,700 -443 Descending Seattle Center
Tue 10:06:56 PM 45.1936 -122.9228 31° Northeast 176 203 4,500 -101 Descending Seattle Center
Tue 10:07:56 PM 45.2333 -122.8944 27° Northeast 159 183 4,500  Level Seattle Center
Tue 10:09:00 PM 45.2767 -122.8578 31° Northeast 163 188 4,500 -49 Level Seattle Center
Tue 10:09:58 PM 45.3169 -122.8242 30° Northeast 168 193 4,400 -202 Descending Seattle Center
Tue 10:10:59 PM 45.3575 -122.7894 31° Northeast 175 201 4,100 -336 Descending Seattle Center
Tue 10:12:03 PM 45.4022 -122.7525 30° Northeast 171 197 3,700 -339 Descending Seattle Center
Tue 10:13:03 PM 45.4436 -122.7178 30° Northeast 171 197 3,400 -458 Descending Seattle Center
Tue 10:14:01 PM 45.4825 -122.6894 27° Northeast 174 200 2,800 -857 Descending Seattle Center
Tue 10:15:02 PM 45.5308 -122.6606 23° Northeast 173 199 1,700 -1,041 Descending Seattle Center
Tue 10:16:02 PM 45.5667 -122.6336 28° Northeast 141 162 700 -1,000 Descending Seattle Center
Tue 10:20:00 PM 45.5833 -122.5833 54° Northeast  Level FlightAware Approximate
Tue 10:27:00 PM 45.5887 -122.5969 54° Northeast  Level Estimated

Login

Don't have an account? Register now (free) for customized features, flight alerts, and more!